Location: ???????
(55.4362°N, 38.1183°E)
Time: 01:11:47
(UTC+00:00)

Cosmos 2219 Rocket - Pass Details

Date: 17 June 2021
Orbit: 829 x 846 km, 71.0° (Epoch: 26 July)

Event Time Altitude Azimuth Distance (km) Brightness Sun altitude
Rises 21:08:25 0° 231° (SW) 3,401 5.0 -11.0°
Reaches altitude 10° 21:10:55 10° 236° (SW) 2,469 4.3 -11.1°
Maximum altitude 21:16:28 53° 313° (NW) 1,041 3.0 -11.1°
Drops below altitude 10° 21:22:01 10° 30° (NNE) 2,475 5.6 -11.1°
Sets 21:24:33 0° 35° (NE) 3,411 6.3 -11.2°
